CSAPA EDCA-EDAH

Flight info

Callsign CSAPA
Flight time 0h 17m
Altitude 2500
Route EDCA DCT BARGIS DCT WHISKEY WROUTE EDAH
Aircraft C152/L-V/N

Departure

Time 2026-05-06 16:54
Airport Anklam Otto Lilienthal Airfield (EDCA)

Arrival

Time 2026-05-06 17:11
Airport Heringsdorf Airport (EDAH)
Time Latitude Longitude Altitude Speed Heading
2026-05-06 16:49 53.83504 13.67870 21 ft 0 kts 180°
2026-05-06 16:49 53.83490 13.67870 21 ft 4 kts 180°
2026-05-06 16:50 53.83461 13.67869 21 ft 3 kts 180°
2026-05-06 16:50 53.83430 13.67869 21 ft 7 kts 180°
2026-05-06 16:50 53.83367 13.67870 21 ft 11 kts 180°
2026-05-06 16:50 53.83308 13.67870 21 ft 14 kts 180°
2026-05-06 16:51 53.83235 13.67870 21 ft 6 kts 181°
2026-05-06 16:51 53.83230 13.67870 21 ft 0 kts 181°
2026-05-06 16:53 53.83209 13.67870 21 ft 10 kts 181°
2026-05-06 16:53 53.83191 13.67794 21 ft 26 kts 268°
2026-05-06 16:54 53.83193 13.67182 56 ft 70 kts 270°
2026-05-06 16:54 53.83205 13.66390 319 ft 64 kts 271°
2026-05-06 16:54 53.83204 13.65619 541 ft 68 kts 268°
2026-05-06 16:54 53.82934 13.64884 685 ft 81 kts 210°
2026-05-06 16:55 53.82359 13.64737 863 ft 88 kts 182°
2026-05-06 16:55 53.81781 13.65027 1025 ft 92 kts 134°
2026-05-06 16:55 53.81603 13.66037 1237 ft 89 kts 92°
2026-05-06 16:55 53.81594 13.67082 1430 ft 91 kts 89°
2026-05-06 16:56 53.81593 13.68182 1506 ft 95 kts 90°
2026-05-06 16:56 53.81586 13.69342 1487 ft 101 kts 91°
2026-05-06 16:56 53.81561 13.70524 1516 ft 100 kts 92°
2026-05-06 16:56 53.81521 13.71688 1539 ft 100 kts 94°
2026-05-06 16:57 53.81473 13.72871 1557 ft 101 kts 94°
2026-05-06 16:57 53.81449 13.74063 1552 ft 103 kts 87°
2026-05-06 16:57 53.81551 13.75264 1558 ft 103 kts 77°
2026-05-06 16:57 53.81752 13.76432 1541 ft 103 kts 71°
2026-05-06 16:58 53.82004 13.77563 1467 ft 104 kts 69°
2026-05-06 16:58 53.82270 13.78694 1432 ft 102 kts 67°
2026-05-06 16:58 53.82550 13.79800 1387 ft 101 kts 67°
2026-05-06 16:58 53.82825 13.80872 1394 ft 98 kts 66°
2026-05-06 16:59 53.83092 13.81917 1410 ft 96 kts 66°
2026-05-06 16:59 53.83360 13.82966 1390 ft 98 kts 66°
2026-05-06 16:59 53.83632 13.84011 1404 ft 96 kts 66°
2026-05-06 16:59 53.83905 13.85037 1415 ft 95 kts 66°
2026-05-06 17:00 53.84171 13.86041 1435 ft 94 kts 65°
2026-05-06 17:00 53.84438 13.87027 1483 ft 91 kts 65°
2026-05-06 17:00 53.84716 13.88017 1476 ft 94 kts 64°
2026-05-06 17:00 53.85003 13.89006 1503 ft 93 kts 64°
2026-05-06 17:01 53.85289 13.89998 1509 ft 94 kts 64°
2026-05-06 17:01 53.85577 13.90991 1528 ft 93 kts 63°
2026-05-06 17:01 53.85852 13.91990 1534 ft 94 kts 69°
2026-05-06 17:01 53.85973 13.93083 1532 ft 95 kts 92°
2026-05-06 17:02 53.85898 13.94195 1548 ft 94 kts 101°
2026-05-06 17:02 53.85650 13.95184 1581 ft 93 kts 129°
2026-05-06 17:02 53.85095 13.95754 1549 ft 96 kts 167°
2026-05-06 17:02 53.84423 13.95687 1513 ft 98 kts 198°
2026-05-06 17:03 53.83861 13.95089 1525 ft 96 kts 225°
2026-05-06 17:03 53.83521 13.94119 1509 ft 97 kts 252°
2026-05-06 17:03 53.83450 13.93000 1516 ft 96 kts 276°
2026-05-06 17:03 53.83687 13.91955 1496 ft 97 kts 305°
2026-05-06 17:04 53.84199 13.91266 1518 ft 94 kts 341°
2026-05-06 17:04 53.84791 13.91483 1548 ft 92 kts 44°
2026-05-06 17:04 53.84966 13.92551 1418 ft 104 kts 97°
2026-05-06 17:04 53.84920 13.93697 1514 ft 92 kts 89°
2026-05-06 17:05 53.84938 13.94809 1480 ft 97 kts 88°
2026-05-06 17:05 53.84971 13.95939 1504 ft 94 kts 84°
2026-05-06 17:05 53.85096 13.97033 1499 ft 96 kts 77°
2026-05-06 17:05 53.85235 13.98135 1503 ft 95 kts 78°
2026-05-06 17:06 53.85366 13.99235 1507 ft 95 kts 78°
2026-05-06 17:06 53.85498 14.00341 1509 ft 95 kts 78°
2026-05-06 17:06 53.85633 14.01441 1513 ft 95 kts 78°
2026-05-06 17:06 53.85775 14.02542 1515 ft 95 kts 77°
2026-05-06 17:07 53.85917 14.03640 1517 ft 95 kts 77°
2026-05-06 17:07 53.86051 14.04730 1518 ft 96 kts 79°
2026-05-06 17:07 53.86176 14.05836 1521 ft 95 kts 79°
2026-05-06 17:07 53.86302 14.06938 1523 ft 96 kts 78°
2026-05-06 17:08 53.86438 14.08038 1526 ft 95 kts 78°
2026-05-06 17:08 53.86568 14.09120 1521 ft 93 kts 78°
2026-05-06 17:08 53.86685 14.10209 1494 ft 95 kts 84°
2026-05-06 17:08 53.86636 14.11330 1454 ft 96 kts 101°
2026-05-06 17:09 53.86508 14.12415 1476 ft 91 kts 101°
2026-05-06 17:09 53.86599 14.13332 1486 ft 75 kts 43°
2026-05-06 17:09 53.87057 14.13227 1248 ft 77 kts 307°
2026-05-06 17:09 53.87224 14.12324 998 ft 81 kts 283°
2026-05-06 17:10 53.87355 14.11390 849 ft 83 kts 284°
2026-05-06 17:10 53.87685 14.10762 816 ft 71 kts 340°
2026-05-06 17:10 53.88160 14.10778 770 ft 68 kts 12°
2026-05-06 17:10 53.88467 14.11328 599 ft 72 kts 77°
2026-05-06 17:11 53.88381 14.12160 365 ft 73 kts 109°
2026-05-06 17:11 53.88245 14.12962 217 ft 70 kts 107°
2026-05-06 17:11 53.88115 14.13749 125 ft 67 kts 105°
2026-05-06 17:11 53.88008 14.14410 96 ft 48 kts 105°
2026-05-06 17:12 53.87936 14.14851 96 ft 32 kts 105°
2026-05-06 17:12 53.87890 14.15142 96 ft 20 kts 105°
2026-05-06 17:12 53.87865 14.15246 96 ft 3 kts 178°
2026-05-06 17:12 53.87823 14.15235 96 ft 4 kts 197°
2026-05-06 17:13 53.87810 14.15228 96 ft 0 kts 198°
2026-05-06 17:13 53.87805 14.15225 96 ft 1 kts 198°
2026-05-06 17:13 53.87787 14.15196 96 ft 7 kts 255°
2026-05-06 17:13 53.87790 14.15110 96 ft 9 kts 274°
2026-05-06 17:14 53.87790 14.14994 96 ft 11 kts 270°
2026-05-06 17:14 53.87793 14.14860 96 ft 12 kts 273°
2026-05-06 17:14 53.87799 14.14716 96 ft 13 kts 274°
2026-05-06 17:14 53.87804 14.14563 96 ft 13 kts 273°
2026-05-06 17:15 53.87810 14.14403 96 ft 14 kts 273°
2026-05-06 17:15 53.87814 14.14297 96 ft 5 kts 283°
2026-05-06 17:15 53.87815 14.14259 96 ft 2 kts 197°
2026-05-06 17:15 53.87785 14.14292 96 ft 7 kts 125°
2026-05-06 17:16 53.87754 14.14359 96 ft 6 kts 155°
2026-05-06 17:16 53.87747 14.14360 96 ft 0 kts 181°